| time (UTC) | temp F | wind direction | speed knots | gust knots | rain 1hr in | rain 24hr in | rain mn in | humidity % | barometer mb |
| 20260506124549 | 61 | 5 | 7.8 | 16.5 | 0.00 | 0.00 | 0.00 | 86 | 1014.6 |
| 20260506123049 | 61 | 360 | 7.8 | 12.2 | 0.00 | 0.00 | 0.00 | 86 | 1014.2 |
| 20260506121547 | 62 | 5 | 7.0 | 10.4 | 0.00 | 0.00 | 0.00 | 85 | 1014.2 |
| 20260506120057 | 62 | 28 | 7.8 | 12.2 | 0.00 | 0.00 | 0.00 | 86 | 1013.9 |
| 20260506114558 | 63 | 5 | 6.1 | 10.4 | 0.00 | 0.00 | 0.00 | 85 | 1013.7 |
| 20260506113053 | 64 | 355 | 2.6 | 8.7 | 0.00 | 0.00 | 0.00 | 86 | 1014.0 |
| 20260506111548 | 64 | 42 | 3.5 | 9.6 | 0.00 | 0.00 | 0.00 | 86 | 1013.8 |
| 20260506110055 | 65 | 24 | 4.3 | 8.7 | 0.00 | 0.00 | 0.00 | 86 | 1013.8 |
| 20260506104550 | 65 | 12 | 6.1 | 13.0 | 0.00 | 0.00 | 0.00 | 86 | 1013.6 |
| 20260506103049 | 66 | 13 | 5.2 | 9.6 | 0.00 | 0.00 | 0.00 | 86 | 1013.3 |
| 20260506101551 | 67 | 22 | 3.5 | 7.8 | 0.00 | 0.00 | 0.00 | 88 | 1013.4 |
| 20260506100048 | 67 | 34 | 4.3 | 8.7 | 0.00 | 0.00 | 0.00 | 90 | 1013.4 |
| 20260506094610 | 68 | 15 | 5.2 | 9.6 | 0.00 | 0.00 | 0.00 | 90 | 1013.0 |
| 20260506093056 | 70 | 38 | 4.3 | 7.8 | 0.00 | 0.00 | 0.00 | 93 | 1012.7 |
| 20260506091556 | 72 | 62 | 2.6 | 4.3 | 0.00 | 0.00 | 0.00 | 92 | 1012.6 |
| 20260506090051 | 73 | 126 | 0.9 | 2.6 | 0.00 | 0.00 | 0.00 | 94 | 1012.8 |
| 20260506084554 | 73 | 126 | 1.7 | 3.5 | 0.00 | 0.00 | 0.00 | 94 | 1012.5 |
| 20260506083102 | 74 | 126 | 3.5 | 7.0 | 0.00 | 0.00 | 0.00 | 94 | 1012.4 |
| 20260506081551 | 74 | 132 | 3.5 | 5.2 | 0.00 | 0.00 | 0.00 | 94 | 1012.3 |
| 20260506073053 | 74 | 150 | 1.7 | 5.2 | 0.00 | 0.00 | 0.00 | 93 | 1012.6 |
| 20260506071549 | 74 | 199 | 0.9 | 2.6 | 0.00 | 0.00 | 0.00 | 92 | 1012.8 |
| 20260506061552 | 74 | 59 | 2.6 | 5.2 | 0.00 | 0.00 | 0.00 | 92 | 1012.5 |
| 20260506044550 | 74 | 173 | 1.7 | 7.8 | 0.00 | 0.00 | 0.00 | 90 | 1011.7 |
| 20260506043042 | 74 | 179 | 4.3 | 8.7 | 0.00 | 0.00 | 0.00 | 90 | 1011.6 |
| 20260506041550 | 74 | 156 | 4.3 | 8.7 | 0.00 | 0.00 | 0.00 | 90 | 1011.6 |
| 20260506040059 | 73 | 146 | 3.5 | 6.1 | 0.00 | 0.00 | 0.00 | 90 | 1011.7 |
| 20260506034558 | 73 | 148 | 3.5 | 5.2 | 0.00 | 0.00 | 0.00 | 90 | 1011.7 |
| 20260506033047 | 73 | 147 | 3.5 | 7.8 | 0.00 | 0.00 | 0.00 | 89 | 1011.3 |
| 20260506031557 | 73 | 158 | 6.1 | 8.7 | 0.00 | 0.00 | 0.00 | 89 | 1011.0 |
| 20260506030048 | 74 | 141 | 4.3 | 7.0 | 0.00 | 0.00 | 0.00 | 89 | 1011.1 |
| 20260506024543 | 74 | 126 | 3.5 | 6.1 | 0.00 | 0.00 | 0.00 | 87 | 1011.1 |
| 20260506023047 | 75 | 146 | 2.6 | 4.3 | 0.00 | 0.00 | 0.00 | 86 | 1010.8 |
| 20260506021543 | 76 | 153 | 3.5 | 5.2 | 0.00 | 0.00 | 0.00 | 85 | 1010.2 |
| 20260506020049 | 77 | 157 | 2.6 | 7.8 | 0.00 | 0.00 | 0.00 | 83 | 1010.2 |
| 20260506014549 | 78 | 166 | 3.5 | 7.8 | 0.00 | 0.00 | 0.00 | 82 | 1009.8 |
| 20260506013055 | 78 | 164 | 2.6 | 7.0 | 0.00 | 0.00 | 0.00 | 80 | 1009.6 |
| 20260506011556 | 79 | 159 | 3.5 | 7.0 | 0.00 | 0.00 | 0.00 | 79 | 1009.6 |
| 20260506010056 | 80 | 157 | 3.5 | 6.1 | 0.00 | 0.00 | 0.00 | 77 | 1009.3 |
| 20260506004553 | 81 | 177 | 3.5 | 8.7 | 0.00 | 0.00 | 0.00 | 75 | 1009.3 |
| 20260506003049 | 82 | 189 | 2.6 | 6.1 | 0.00 | 0.00 | 0.00 | 73 | 1009.2 |
| 20260506001549 | 83 | 159 | 1.7 | 9.6 | 0.00 | 0.00 | 0.00 | 71 | 1009.2 |
| 20260506000050 | 83 | 161 | 5.2 | 9.6 | 0.00 | 0.00 | 0.00 | 70 | 1009.3 |
| 20260505234559 | 84 | 176 | 3.5 | 8.7 | 0.00 | 0.00 | 0.00 | 68 | 1009.2 |
| 20260505233103 | 84 | 198 | 3.5 | 7.8 | 0.00 | 0.00 | 0.00 | 70 | 1009.3 |
| 20260505231555 | 86 | 184 | 1.7 | 7.8 | 0.00 | 0.00 | 0.00 | 66 | 1009.3 |
| 20260505230047 | 86 | 0 | 0.9 | 7.0 | 0.00 | 0.00 | 0.00 | 66 | 1009.2 |
| 20260505224549 | 87 | 178 | 1.7 | 7.0 | 0.00 | 0.00 | 0.00 | 64 | 1009.1 |
| 20260505223051 | 86 | 178 | 1.7 | 8.7 | 0.00 | 0.00 | 0.00 | 67 | 1009.3 |
| 20260505221549 | 85 | 163 | 4.3 | 10.4 | 0.00 | 0.00 | 0.00 | 67 | 1009.1 |
| 20260505220049 | 86 | 143 | 5.2 | 11.3 | 0.00 | 0.00 | 0.00 | 65 | 1009.3 |
| 20260505214550 | 86 | 192 | 2.6 | 8.7 | 0.00 | 0.00 | 0.00 | 66 | 1009.1 |
| 20260505213043 | 87 | 198 | 3.5 | 8.7 | 0.00 | 0.00 | 0.00 | 64 | 1009.3 |
| 20260505211547 | 86 | 205 | 3.5 | 7.8 | 0.00 | 0.00 | 0.00 | 68 | 1009.6 |
| 20260505210050 | 86 | 168 | 3.5 | 10.4 | 0.00 | 0.00 | 0.00 | 67 | 1009.8 |
| 20260505204549 | 86 | 192 | 5.2 | 9.6 | 0.00 | 0.00 | 0.00 | 67 | 1009.8 |
| 20260505203049 | 88 | 151 | 3.5 | 7.8 | 0.00 | 0.00 | 0.00 | 66 | 1009.9 |
| 20260505201556 | 87 | 146 | 1.7 | 8.7 | 0.00 | 0.00 | 0.00 | 65 | 1010.0 |
| 20260505200049 | 86 | 167 | 2.6 | 8.7 | 0.00 | 0.00 | 0.00 | 68 | 1010.0 |
| 20260505194605 | 87 | 155 | 2.6 | 8.7 | 0.00 | 0.00 | 0.00 | 66 | 1010.2 |
| 20260505193048 | 87 | 186 | 0.9 | 7.0 | 0.00 | 0.00 | 0.00 | 70 | 1010.2 |
| 20260505191544 | 85 | 0 | 1.7 | 11.3 | 0.00 | 0.00 | 0.00 | 70 | 1010.3 |
| 20260505190047 | 86 | 159 | 2.6 | 8.7 | 0.00 | 0.00 | 0.00 | 67 | 1010.5 |
| 20260505184552 | 85 | 222 | 2.6 | 8.7 | 0.00 | 0.00 | 0.00 | 71 | 1010.9 |
| 20260505183050 | 86 | 207 | 2.6 | 11.3 | 0.00 | 0.00 | 0.00 | 69 | 1011.1 |
| 20260505181552 | 85 | 221 | 3.5 | 9.6 | 0.00 | 0.00 | 0.00 | 70 | 1011.4 |
| 20260505180050 | 84 | 193 | 2.6 | 13.9 | 0.00 | 0.00 | 0.00 | 71 | 1011.5 |
| 20260505174556 | 83 | 198 | 3.5 | 12.2 | 0.00 | 0.00 | 0.00 | 72 | 1011.7 |
| 20260505173051 | 82 | 157 | 2.6 | 13.0 | 0.00 | 0.00 | 0.00 | 74 | 1011.7 |
| 20260505171553 | 82 | 256 | 3.5 | 13.9 | 0.00 | 0.00 | 0.00 | 74 | 1011.7 |
| 20260505170049 | 81 | 215 | 2.6 | 10.4 | 0.00 | 0.00 | 0.00 | 75 | 1012.1 |
| 20260505164614 | 79 | 241 | 3.5 | 15.6 | 0.00 | 0.00 | 0.00 | 77 | 1011.8 |
| 20260505163053 | 79 | 223 | 4.3 | 12.2 | 0.00 | 0.00 | 0.00 | 77 | 1012.0 |
| 20260505161550 | 79 | 251 | 3.5 | 12.2 | 0.00 | 0.00 | 0.00 | 76 | 1011.9 |
| 20260505153049 | 76 | 227 | 5.2 | 12.2 | 0.00 | 0.00 | 0.00 | 82 | 1012.1 |
| 20260505151550 | 75 | 228 | 6.1 | 15.6 | 0.00 | 0.00 | 0.00 | 82 | 1012.0 |
| 20260505130108 | 70 | 224 | 4.3 | 8.7 | 0.00 | 0.00 | 0.00 | 91 | 1011.3 |